カタログに戻る

THOR ABLESTAR DEB

運用中LEO
NORAD 320·DEBRIS·🇺🇸 United States

打ち上げ Jun 29, 1961 から Cape Canaveral Space Force Station

Loading…

次のパス (今後24時間)

TLE

最新Source: Space-Track

元期: Sep 9, 2026, 22:59 UTC

1 00320U 61015CW  26252.95828916  .00000211  00000-0  10514-3 0  9991
2 00320  66.9050 185.9683 0137526 317.5336  41.5186 14.29635050380477

AllMySatでTHOR ABLESTAR DEBをリアルタイム追跡

Download on the App Store